Погода в Учаджи

Погода в Учаджи : погода сейчас, прогноз погоды и архив. Всё, что Вы хотите узнать о погоде в Учаджи!

Хотите узнать прогноз погоды в Учаджи? Тогда Вам сюда: Погода в Учаджи

Поиск расширенной информации на нашем сайте:

Другие новости

Новости СМИ2

Главная страница сайта

Новости сайта

03.07.2017

Напоминаем, что на нашем специализированном сайте Метеоцентр.Азия вы можете получить высокодетализированные автоматические прогнозы погоды по пунктам России, СНГ и мира в авиационном формате (включающие направление и скорость ветра, видимость, явления погоды, количество и форму облачности, нижнюю и верхнюю границу облачности).

Рекомендуем: Анорексия фото мужчины в мире набирает популярность мужская анорексия.

Погода в Учаджи - сегодня

Время (UTC), дата Ветер
(°,м/с) 
Видим.   Явления Облачность Т
(°С)
Тd
(°С)
f(%) Тe
(°С)
Pmin
(гПа)
dP
(гПа)
Po
(мм)
O2
(г/м3)
Тmin Tmax R s Состояние
почвы
18 16.09.17 320 (СЗ) 10 км    ясно 
+19 +3.6 36 +21  1015.9  0.9  745  280    +32.5       
21 16.09.17 290 (З) 10 км    ясно 
+16.4 +1.1 35 +17  1015.7  -0.4  745  283           
00 17.09.17 290 (З) 10 км    ясно 
+12 +1.1 47 +13  1016.1  0.1  745  287           
03 17.09.17 250 (З) 10 км    ясно 
+14 -1.2 35 +15  1015.9  -0.1  745  286           
06 17.09.17 250 (З) 10 км    ясно 
+26.2 +0.4 18 +26  1015.8  0.8  746  274  +11         
09 17.09.17 320 (СЗ) 10 км    ясно 
+31 +1.1 15 +31  1014.7  -0.7  745  269           
12 17.09.17 290 (З) 10 км    ясно 
+32.2 +0.6 13 +32  1013.6  -1  744  268           
15 17.09.17 340 (С) 10 км    ясно 
+27 +1.5 19 +27  1013.9  -0.1  744  273    +33       
18 17.09.17 320 (СЗ) 10 км    ясно 
+20.7 +3.8 33 +21  1015.8  1.5  745  279    +33       
21 17.09.17 340 (С) 10 км    ясно 
+18.9 +0.6 29 +20  1015.8  -0.2  745  281           
00 18.09.17 290 (З) 10 км    ясно 
+16.5 +0 33 +17  1016.2  0.2  745  283           
03 18.09.17 270 (З) 10 км    ясно 
+15.7 -0.7 33 +17  1016.4  0.1  745  284           
06 18.09.17 320 (СЗ) 10 км    ясно 
+26.8 +2.5 21 +27  1016.6  1.1  746  273  +10.6         
09 18.09.17 320 (СЗ) 10 км    ясно 
+33 +1.9 14 +33  1015.4  -0.8  746  268           
12 18.09.17 320 (СЗ) 10 км    ясно 
+34 +2.7 14 +34  1013.9  -1.4  745  266           
15 18.09.17 050 (СВ) 10 км    ясно 
+29.8 +6.4 23 +30  1014.2  745  270    +34.6       
18 18.09.17 360 (С) 10 км    ясно 
+21.9 +5.5 34 +22  1015.5  0.7  745  277    +34.6       
21 18.09.17 020 (С) 10 км    ясно 
+18.2 +4.1 39 +20  1015.5  -0.3  745  281           
00 19.09.17 360 (С) 10 км    ясно 
+14.8 +4.5 50 +16  1015.6  -0.1  745  284           
03 19.09.17 340 (С) 10 км    ясно 
+16.6 +3.4 41 +18  1016.4  746  283           
06 19.09.17 020 (С) 10 км    ясно 
+30 +0.4 15 +30  1016.4  0.9  746  271  +14         
09 19.09.17 050 (СВ) 10 км    ясно 
+33.4 -1.4 11 +33  1015  -1.2  745  268           
12 19.09.17 020 (С) 10 км    ясно 
+34.1 -1.4 10 +34  1013.6  -1.3  744  267           
15 19.09.17 020 (С) 10 км    ясно 
+29.5 +0 15 +30  1014.5  0.6  745  271    +35.3       
18 19.09.17 320 (СЗ) 10 км    ясно 
+23 +4.6 30 +23  1014.9  -0.1  745  276    +35.3       
Время (UTC), дата Ветер
(°,м/с) 
Видим.   Явления Облачность Т
(°С)
Тd
(°С)
f(%) Тe
(°С)
Pmin
(гПа)
dP
(гПа)
Po
(мм)
O2
(г/м3)
Тmin Tmax R s Состояние
почвы

Для получения пояснительной информации подведите курсор к названию столбца.

ПОГОДА в Учаджи - архив

Всё, что Вы хотите узнать о погоде в Учаджи - удобно и подробно!

Выберите нужную дату (начиная с 1 января 2015* года) и нажмите кнопку "Найти".
Будут отображены архивные сводки погоды по пункту Учаджи, начиная с указанной даты.


Отображать данные в формате CSV (для использования в таблицах Excel)


Внимание! Наш архив погоды предназначен исключительно для личного некоммерческого использования в познавательных целях. Если Вам необходимы официальные справки о состоянии погоды (для производственных, юридических, коммерческих и т.п. целей), обращайтесь в органы Росгидромета.

*Примечание: данная дата относится к архиву по метеостанциям СССР (Россия, СНГ, Балтия).
Архив по метеостанциям Зарубежной Европы и Азии (кроме Китая) хранится 10 дней, по другим регионам земного шара (Китай, Африка, Америка, Австралия, Океания) - 1 день.

Учаджи - район местоположения метеостанции


Название, широта, долгота, высота метеостанции:
Учаджи 38.1°ш. 62.8°д. 185 м над ур. моря [Туркменистан]

Дополнительная информация

В oтличие oт бoльшинства пoгoдных сайтoв мы публикуем пoдрoбную метеoинфoрмацию в детальнoм прoфессиoнальнoм фoрмате.

Характеристики температуры и влажнoсти вoздуха измеряются на высoте 2 м в тени вдали oт зданий и деревьев.
Скoрoсть ветра измеряется на высoте 10 м (на урoвне рoста челoвека скoрoсть ветра ниже в 1.5-2 раза). Если метеoстанция нахoдится в гoрoде или в лесу, тo скoрoсть ветра занижена на 2-4 м/с пo сравнению с oткрытым местoм. Скoрoсть ветра над акватoриями крупных рек и oзёр, а также на вершинах хoлмoв на 2-5 м/с выше, чем в oбычных услoвиях.
Атмoсфернoе давление в разных тoчках местнoсти мoжет значительнo oтличаться oт давления на метеoстанции, в зависимoсти oт услoвий рельефа (при пoдъёме на 10 м давление пoнижается примернo на 1 мм рт.ст.).